Weather Service Report


204 
ASCA44 KEWX 260220
RWRMX 

LATIN AMERICA AND CARIBBEAN REGIONAL WEATHER ROUNDUP
NATIONAL WEATHER SERVICE AUSTIN/SAN ANTONIO TX
900 PM CDT SAT APR 25 2015

NOTE: "FAIR" INDICATED FEW OR NO CLOUDS BELOW 12,000 FEET WITH NO
SIGNIFICANT WEATHER AND/OR OBSTRUCTIONS TO VISIBILITY.

BAJA CALIFORNIA
  
CITY           SKY/WX    TMP DP  RH WIND       PRES   REMARKS
LORETO           N/A    N/A N/A N/A MISG        N/A                   
LA PAZ         PTCLDY    77  59  53 NW7       29.88S                  
MEXICALI       PTCLDY    72  43  35 W18       29.79F                  
S.J. DEL CABO  PTCLDY    75  52  43 E6        29.89S                  
TIJUANA        CLOUDY    59  54  82 W12       29.96F                  

NORTHWESTERN MEXICO
  
CITY           SKY/WX    TMP DP  RH WIND       PRES   REMARKS
CULIACAN       MOCLDY    79  63  57 W7        29.84R                  
DURANGO        CLEAR     72  39  30 SW15      30.11R                  
GUAYMAS        CLEAR     77  48  36 S10       29.79F                  
HERMOSILLO     CLEAR     81  36  19 S12       29.85F                  
CD. JUAREZ     PTCLDY    73  27  17 W16G29    29.76S                  
LOS MOCHIS     MOCLDY    75  54  46 NW8       29.85S                  
OBREGON        PTCLDY    79  36  21 W3        29.80F                  

NORTHEASTERN MEXICO
  
CITY           SKY/WX    TMP DP  RH WIND       PRES   REMARKS
CHIHUAHUA      PTCLDY    77  23  13 W10G25    29.86R                  
MONTERREY      PTCLDY    79  70  73 SE5       29.75R                  
REYNOSA          N/A    N/A N/A N/A MISG        N/A                   
SALTILLO       PTCLDY    75  55  50 N9        29.92S                  
TORREON        MOCLDY    91  32  12 SW7       29.83R                  
CD. VICTORIA   PTCLDY    82  70  65 W5        29.73R                  

WESTERN MEXICO
  
CITY           SKY/WX    TMP DP  RH WIND       PRES   REMARKS
AGUASCALIENTES MOCLDY    70  32  24 SW7       30.15R                  
DEL BAJIO      MOCLDY    75  43  31 SW7       30.18R                  
GUADALAJARA    MOCLDY    77  45  31 W18       30.08R                  
MANZANILLO     PTCLDY    79  72  78 CALM      29.76R                  
MAZATLAN       CLEAR     73  61  64 W12       29.84R                  
P. VALLARTA    MOCLDY    79  73  83 SW6       29.85R                  
ZACATECAS      CLEAR     70  39  32 W12       30.17R                  

CENTRAL MEXICO
  
CITY           SKY/WX    TMP DP  RH WIND       PRES   REMARKS
MEXICO CITY    CLEAR     73  41  31 S9        30.21R                  
MORELIA        PTCLDY    70  48  46 SW6       30.14R                  
POZA RICA        N/A    N/A N/A N/A MISG        N/A                   
PUEBLA           N/A    N/A N/A N/A MISG        N/A                   
S. LUIS POTOSI MOCLDY    73  36  25 NW6       30.10R                  
TAMPICO        PTCLDY    82  79  89 SE16      29.67R HAZE    HX  93   
TOLUCA         MOCLDY    66  37  34 S6        30.32R                  

SOUTHERN MEXICO
  
CITY           SKY/WX    TMP DP  RH WIND       PRES   REMARKS
ACAPULCO       CLEAR     81  79  94 W9        29.78R                  
OAXACA         PTCLDY    79  48  34 SE9       30.10R                  
VERACRUZ       CLEAR     86  77  74 E3        29.70R HX  97           
ZIHUATANEJO    PTCLDY    82  75  78 CALM      29.81R                  

YUCATAN PENINSULA
  
CITY           SKY/WX    TMP DP  RH WIND       PRES   REMARKS
CAMPECHE       CLEAR     86  79  79 N7        29.74R HX  99           
CANCUN         CLEAR     81  75  83 SE10      29.88S                  
CHETUMAL       CLEAR     82  73  74 E12       29.83R                  
CD. DEL CARMEN   N/A    N/A N/A N/A MISG        N/A                   
COZUMEL        PTCLDY    77  75  94 SE3       29.91R                  
MERIDA         CLEAR     86  72  62 N3        29.78R HX  92           
MINATITLAN       N/A    N/A N/A N/A MISG        N/A                   
TAPACHULA      MOCLDY    84  79  84 CALM      29.81R HX  96           
TUX. GUTIERREZ MOCLDY    88  61  40 NW5       29.80R                  
VILLAHERMOSA   PTCLDY    86  75  70 NE5       29.74R HX  95           

CENTRAL AMERICA
  
CITY           SKY/WX    TMP DP  RH WIND       PRES   REMARKS
BELIZE CITY    PTCLDY    81  75  83 E5        29.83R                  
MANAGUA        MOCLDY    86  68  54 E9        29.80R                  

CARIBBEAN
  
CITY           SKY/WX    TMP DP  RH WIND       PRES   REMARKS
CURACAO        PTCLDY    81  77  89 E9        29.86S                  
KINGSTON       PTCLDY    82  73  74 SE12      29.89S                  
NASSAU         PTCLDY    81  72  74 SE16      29.92S                  
SAN JUAN       PTCLDY    82  72  69 S3        29.99R                  
SANTO DOMINGO  PTCLDY    75  72  88 SE5       29.94S                  
ST. CROIX      PTCLDY    81  73  78 SE7       30.00                   
ST. KITTS      PTCLDY    75  70  83 CALM      29.97S                  
ST. MAARTEN    PTCLDY    81  73  78 VRB1      30.00R                  
ST. THOMAS     CLEAR     81  75  83 SE6       29.98                   

$$


Return to Home page


Western Regional Climate Center, wrcc@dri.edu